CZ-6A DEB

Satellite information

Favourite Embed

Satellite Type and Status

DEBRISIN ORBIT

Key statistics

Satellite CZ-6A DEB at a glance.

Uptime

1079

Days in orbit

Revolutions

≈ 14.8

Per day

Orbit

SSO

Sun Synchronous Orbit

Inclination

99.1

Latest

Satellite identification and parameters

Extended collection of information and parameters for CZ-6A DEB.

Object identification

Identified? True

Debris? True

Object name: CZ-6A DEB

International designator: 2022-151SB

Object number (NORAD): 54938

Object ID (CCSDS): 54938

Country: PEOPLES REPUBLIC OF CHINA (PRC)

Current information (Y/N): Y

RCS size: SMALL

Orbital parameters

Period: 97.535 minutes

Inclination: 99.1353 deg

SMA: 7018.854 km

Apoapsis: 699.088 km

Periapsis: 582.35 km

RAAN: 60.7544 deg

Eccentricy: 0.00831605

Argument of periapsis: 301.7384 deg

Mean anomaly: 57.5737 deg

Mean motion: 14.76397925 rev/day

Mean motion (dot): 0.00023191 rev/day2

B* drag term: 0.0031524904 1/REarth

Two-line elements (TLE)

Creation date: Oct. 25, 2025, 3:11 a.m.

Reference frame: TEME

Reference center: EARTH

Epoch: Oct. 24, 2025, 9:55 p.m. UTC

TLE line 0: 0 CZ-6A DEB

TLE line 1: 1 54938U 22151SB 25297.91331327 .00023191 00000-0 31525-2 0 9998

TLE line 2: 2 54938 99.1353 60.7544 0083160 301.7384 57.5737 14.76397925156099

Live tracking on map

Real-time ground track for satellite CZ-6A DEB.

In-orbit conjunctions

A list of the most updated potential collisions computed for object CZ-6A DEB.

Target Orbit TCA Probability of collision Miss distance Type
SL-16 DEB LEO 2025-01-21 03:40:53 0.0001097369 271.0 (m) DEBRIS
COSMOS 1275 DEB LEO 2024-11-11 17:43:13 0.0002436773 870.0 (m) DEBRIS
MINOTAUR DEB SSO 2024-09-25 11:59:56 0.0002446121 333.0 (m) DEBRIS

Associated space launch

Chinese satellite reported for atmospheric/ocean/environmental/spatial parameter research purposes, details TBD.

CZ-6A DEB was lifted into orbit during the mission ‘Long March 6A | Yunhai 3’, on board a Long March 6A space rocket.

The launch took place on Nov. 11, 2022, 10:52 p.m. from Launch Complex 9A.

For more information about the launch, click the button.

Launch to space Long March 6A | Yunhai 3
Long March 6A | Yunhai 3

Agency: N/A

Status: Launch Successful

Launch date: Nov. 11, 2022, 10:52 p.m. UTC

Rocket: Long March 6A

Launch pad: Launch Complex 9A

Location: Taiyuan Satellite Launch Center, People's Republic of China

...

Latest news about this satellite

There are no fresh news available about this satellite. Check back as we update our databases every day.


Newsletter sign-up

Weekly statistics, charts and insights to help you stay on top of the space industry.